(64831) = 1995 OR17 = 2001 XT246

Discovered at Socorro on 2001-12-15 by LINEAR.

Orbit

Orbit type: Main Belt

Note: WebGL enabled browser required.

epoch2024-03-31.0
epoch JD2460400.5
perihelion date2021-09-11.55612
perihelion JD2459469.05612
argument of perihelion (°)259.51965
ascending node (°)274.34238
inclination (°)10.09448
eccentricity0.0667162
perihelion distance (AU)2.5964229
Tisserand w.r.t. Jupiter3.3
ΔV w.r.t. Earth (km/sec)10.6
semimajor axis (AU)2.7820295
mean anomaly (°)197.84175
mean daily motion (°/day)0.21240330
aphelion distance (AU)2.968
period (years)4.64
P-vector [x]-0.97908932
P-vector [y]0.16771339
P-vector [z]-0.11513609
Q-vector [x]-0.10411531
Q-vector [y]-0.89934502
Q-vector [z]-0.42466285
absolute magnitude15.41
phase slope0.15
uncertainty0
referenceMPEC 2024-E02
observations used886
oppositions19
arc length (days)10354
first opposition used1995
last opposition used2023
residual rms (arc-secs)0.76
perturbers coarse indicatorM-v
perturbers precise indicator003Ek
first observation date used1995-07-04.0
last observation date used2023-11-08.0
computer nameMPCLINUX
JD of orbit computation2456966.716259
perihelion JD uncertainty (days)1.7750E-04
argument of perihelion uncertainty (°)4.9928E-05
ascending node uncertainty (°)3.4808E-05
inclination uncertainty (°)5.0383E-06
eccentricity uncertainty 7.1037E-08
perihelion distance uncertainty (AU)2.0193E-07
Minimum Orbit Intersection Distances (in AU)
for orbit epoch: 2460400.5, reference: E2024-E02
Mercury2.20017
Venus1.9032
Earth1.62596
Mars1.01471
Jupiter2.13044
Saturn6.27111
Uranus15.8856
Neptune26.9499

Observations

907 total observations over interval: 1995 07 04.33558 – 2023 11 08.124914
These data are available for download (format description).

Date (UT) J2000 RA J2000 Dec Magn Location Ref
1995 07 04.33558 21 24 00.40 -06 51 33.8 20.3 V 691 – Steward Observatory, Kitt Peak-Spacewatch MPS 46407
1995 07 04.35665 21 23 59.73 -06 51 30.9   691 – Steward Observatory, Kitt Peak-Spacewatch MPS 46407
1995 07 04.37764 21 23 59.05 -06 51 28.1   691 – Steward Observatory, Kitt Peak-Spacewatch MPS 46407
1995 07 27.23275 21 08 13.42 -06 31 38.5   691 – Steward Observatory, Kitt Peak-Spacewatch MPS 32115
1995 07 27.25389 21 08 12.34 -06 31 40.6   691 – Steward Observatory, Kitt Peak-Spacewatch MPS 32115
1995 07 27.27570 21 08 11.18 -06 31 39.9 19.6 V 691 – Steward Observatory, Kitt Peak-Spacewatch MPS 32115
1995 08 02.24335 21 03 01.71 -06 36 10.3 20.2 V 691 – Steward Observatory, Kitt Peak-Spacewatch MPS 32115
1995 08 02.26412 21 03 00.63 -06 36 11.6 20.4 V 691 – Steward Observatory, Kitt Peak-Spacewatch MPS 32115
1995 08 02.28511 21 02 59.50 -06 36 13.0 20.4 V 691 – Steward Observatory, Kitt Peak-Spacewatch MPS 32115
2000 09 01.25615 22 51 02.93 +08 09 03.0 19.0   704 – Lincoln Laboratory ETS, New Mexico MPS 47043
2000 09 01.26930 22 51 02.24 +08 08 59.6 19.1   704 – Lincoln Laboratory ETS, New Mexico MPS 47043
2000 09 01.28300 22 51 01.49 +08 08 57.7 19.6   704 – Lincoln Laboratory ETS, New Mexico MPS 47043
2000 09 01.29619 22 51 00.87 +08 08 54.7 19.6   704 – Lincoln Laboratory ETS, New Mexico MPS 47043
2000 09 01.30938 22 51 00.21 +08 08 53.0 19.4   704 – Lincoln Laboratory ETS, New Mexico MPS 47043
2001 11 11.35711 05 11 29.38 +29 28 14.1 19.2   704 – Lincoln Laboratory ETS, New Mexico MPS 47043
2001 11 11.37175 05 11 28.78 +29 28 12.7 19.3   704 – Lincoln Laboratory ETS, New Mexico MPS 47043
2001 11 11.38639 05 11 28.03 +29 28 10.8 20.1   704 – Lincoln Laboratory ETS, New Mexico MPS 47043
2001 11 11.40102 05 11 27.59 +29 28 09.3 20.0   704 – Lincoln Laboratory ETS, New Mexico MPS 47043
2001 11 11.41566 05 11 26.85 +29 28 06.7 19.8   704 – Lincoln Laboratory ETS, New Mexico MPS 47043
2001 11 24.30536 05 00 45.35 +28 50 19.3 19.3   704 – Lincoln Laboratory ETS, New Mexico MPS 49790
2001 11 24.33481 05 00 43.61 +28 50 12.3 19.2   704 – Lincoln Laboratory ETS, New Mexico MPS 49790
2001 11 24.34952 05 00 42.72 +28 50 09.2 19.3   704 – Lincoln Laboratory ETS, New Mexico MPS 49790
2001 12 15.23159 04 39 58.97 +27 13 09.8 19.2   704 – Lincoln Laboratory ETS, New Mexico MPS 45420
2001 12 15.24670 04 39 58.11 +27 13 05.2 19.2   704 – Lincoln Laboratory ETS, New Mexico MPS 45420
2001 12 15.26180 04 39 57.27 +27 13 01.5 20.1   704 – Lincoln Laboratory ETS, New Mexico MPS 45420
2001 12 18.22984 04 37 10.56 +26 56 43.6 19.1   704 – Lincoln Laboratory ETS, New Mexico MPS 47043
2001 12 18.24499 04 37 09.75 +26 56 38.3 19.3   704 – Lincoln Laboratory ETS, New Mexico MPS 47043
2001 12 18.26014 04 37 08.88 +26 56 33.6 19.2   704 – Lincoln Laboratory ETS, New Mexico MPS 47043
2001 12 18.27549 04 37 08.04 +26 56 24.9 19.5   704 – Lincoln Laboratory ETS, New Mexico MPS 47043
2001 12 18.29063 04 37 07.11 +26 56 23.3 19.2   704 – Lincoln Laboratory ETS, New Mexico MPS 47043
2001 12 19.22647 04 36 16.39 +26 51 11.3 18.4   704 – Lincoln Laboratory ETS, New Mexico MPS 45420
2001 12 19.24162 04 36 15.56 +26 51 06.2 18.9   704 – Lincoln Laboratory ETS, New Mexico MPS 45420
2001 12 19.25675 04 36 14.71 +26 51 01.5 18.8   704 – Lincoln Laboratory ETS, New Mexico MPS 45420
2001 12 19.27188 04 36 13.86 +26 50 55.9 18.6   704 – Lincoln Laboratory ETS, New Mexico MPS 45420
2001 12 19.28703 04 36 13.01 +26 50 51.6 19.2   704 – Lincoln Laboratory ETS, New Mexico MPS 45420
2001 12 20.21345 04 35 23.65 +26 45 41.7 18.7   644 – Palomar Mountain/NEAT MPS 47043
2001 12 20.23292 04 35 22.66 +26 45 37.3 18.4   704 – Lincoln Laboratory ETS, New Mexico MPS 49790
2001 12 20.24804 04 35 21.73 +26 45 32.6 19.0   704 – Lincoln Laboratory ETS, New Mexico MPS 49790
2001 12 20.26315 04 35 21.08 +26 45 26.2 19.5   704 – Lincoln Laboratory ETS, New Mexico MPS 49790
2001 12 20.29337 04 35 19.28 +26 45 17.6 19.2   704 – Lincoln Laboratory ETS, New Mexico MPS 49791
2001 12 20.29691 04 35 19.13 +26 45 14.9 19.7   644 – Palomar Mountain/NEAT MPS 47043
2001 12 20.35977 04 35 15.72 +26 44 53.7 19.3   644 – Palomar Mountain/NEAT MPS 47043
2002 01 08.22422 04 22 37.52 +25 02 13.4 19.5   704 – Lincoln Laboratory ETS, New Mexico MPS 55235
2002 01 08.23933 04 22 37.12 +25 02 08.6 19.9   704 – Lincoln Laboratory ETS, New Mexico MPS 55235
2002 01 08.25443 04 22 36.72 +25 02 04.5 20.2   704 – Lincoln Laboratory ETS, New Mexico MPS 55235
2002 01 08.26960 04 22 36.26 +25 01 59.9 19.7   704 – Lincoln Laboratory ETS, New Mexico MPS 55235
2002 01 14.08982 04 20 36.77 +24 33 55.1 20.4   704 – Lincoln Laboratory ETS, New Mexico MPS 55235
2002 01 14.11270 04 20 36.42 +24 33 50.6 19.9   704 – Lincoln Laboratory ETS, New Mexico MPS 55235
2002 01 14.12783 04 20 36.13 +24 33 45.8 20.1   704 – Lincoln Laboratory ETS, New Mexico MPS 55235
2002 01 14.14295 04 20 35.87 +24 33 41.2 20.4   704 – Lincoln Laboratory ETS, New Mexico MPS 55235
2003 03 08.34225 11 57 21.70 -17 00 11.1 18.5 R 699 – Lowell Observatory-LONEOS MPS 74173
2003 03 08.35557 11 57 21.06 -17 00 09.7   699 – Lowell Observatory-LONEOS MPS 74173
2003 03 08.36893 11 57 20.40 -17 00 08.8   699 – Lowell Observatory-LONEOS MPS 74173
2003 03 08.38231 11 57 19.75 -17 00 07.1   699 – Lowell Observatory-LONEOS MPS 74173
2003 03 11.31260 11 54 58.18 -16 53 20.4 18.7   704 – Lincoln Laboratory ETS, New Mexico MPS 74173
2003 03 11.32612 11 54 57.48 -16 53 17.5 19.1   704 – Lincoln Laboratory ETS, New Mexico MPS 74173
2003 03 11.35312 11 54 56.14 -16 53 14.6 18.9   704 – Lincoln Laboratory ETS, New Mexico MPS 74173
2003 03 11.36664 11 54 55.40 -16 53 11.9 19.0   704 – Lincoln Laboratory ETS, New Mexico MPS 74173
2003 03 30.19968 11 39 11.59 -15 27 41.2 18.7 R 699 – Lowell Observatory-LONEOS MPS 76100
2003 03 30.21745 11 39 10.77 -15 27 32.2   699 – Lowell Observatory-LONEOS MPS 76100
2003 03 30.23526 11 39 09.82 -15 27 26.4   699 – Lowell Observatory-LONEOS MPS 76100
2003 03 30.25304 11 39 08.93 -15 27 20.7   699 – Lowell Observatory-LONEOS MPS 76100
2003 04 07.26234 11 33 17.72 -14 35 35.5 18.9   704 – Lincoln Laboratory ETS, New Mexico MPS 76100
2003 04 07.27463 11 33 17.22 -14 35 31.0 18.7   704 – Lincoln Laboratory ETS, New Mexico MPS 76100
2003 04 07.28678 11 33 16.76 -14 35 25.9 18.8   704 – Lincoln Laboratory ETS, New Mexico MPS 76100
2003 04 07.29894 11 33 16.20 -14 35 20.8 19.0   704 – Lincoln Laboratory ETS, New Mexico MPS 76100
2003 05 05.21217 11 23 42.78 -11 37 06.0 19.6 R 699 – Lowell Observatory-LONEOS MPS 78211
2003 05 05.22833 11 23 42.73 -11 37 01.3   699 – Lowell Observatory-LONEOS MPS 78211
2003 05 05.24446 11 23 42.67 -11 36 55.6   699 – Lowell Observatory-LONEOS MPS 78211
2003 05 05.26075 11 23 42.70 -11 36 50.7   699 – Lowell Observatory-LONEOS MPS 78211
2004 06 18.32317 19 40 18.92 -18 47 30.4 19.8 C 704 – Lincoln Laboratory ETS, New Mexico MPS 290951
2005 09 10.31380 00 58 41.93 +21 47 55.0 19.4 R 699 – Lowell Observatory-LONEOS MPS 142098
2005 09 10.33659 00 58 41.23 +21 47 52.1   699 – Lowell Observatory-LONEOS MPS 142098
2005 09 10.35937 00 58 40.33 +21 47 51.3   699 – Lowell Observatory-LONEOS MPS 142098
2005 09 10.38212 00 58 39.50 +21 47 50.8   699 – Lowell Observatory-LONEOS MPS 142098
2005 10 02.33985 00 42 16.87 +20 47 53.2 19.3 R 644 – Palomar Mountain/NEAT MPS 145541
2005 10 02.36265 00 42 15.68 +20 47 46.7 19.2 R 644 – Palomar Mountain/NEAT MPS 145541
2005 10 02.36594 00 42 15.52 +20 47 45.4 19.5 R 644 – Palomar Mountain/NEAT MPS 145541
2005 10 02.38401 00 42 14.58 +20 47 40.2 19.0 R 644 – Palomar Mountain/NEAT MPS 145541
2005 10 02.38727 00 42 14.41 +20 47 39.4 19.6 R 644 – Palomar Mountain/NEAT MPS 145541
2005 10 02.40894 00 42 13.29 +20 47 32.9 19.2 R 644 – Palomar Mountain/NEAT MPS 145541
2005 10 08.25346 00 37 18.55 +20 16 24.0 18.9 V 703 – Catalina Sky Survey MPS 145541
2005 10 08.25888 00 37 18.26 +20 16 22.0 19.4 V 703 – Catalina Sky Survey MPS 145541
2005 10 08.26436 00 37 17.97 +20 16 19.8 19.1 V 703 – Catalina Sky Survey MPS 145541
2005 10 08.26986 00 37 17.65 +20 16 17.9 19.1 V 703 – Catalina Sky Survey MPS 145541
2005 10 23.15726 00 25 44.35 +18 38 37.8 19.4 R 644 – Palomar Mountain/NEAT MPS 146934
